Flag for U.S.A. Weather past 2 weeks in Jefferson City, Missouri, U.S.A.

Now
57 °F

Overcast.


Feels Like: 57 °F
Forecast: 51 / 68 °F
Wind: 3 mph from North

Location: Jefferson City Memorial Airport

Current Time: Sep 16, 2014 at 6:53:38 AM

Latest Report: Sep 16, 2014 at 5:53 AM


Visibility: 10 mi

Pressure: 30.19 "Hg

Humidity: 81%

Dew point: 51 °F

Location of Jefferson CityLocation

Historic Weather in Jefferson City — Graph

°F

Jefferson City temperature yesterday

Maximum temperature yesterday: 77 °F (at 11:53 AM)
Minimum temperature yesterday: 56 °F (at 4:53 AM)
Average temperature yesterday: 66 °F

Past Weeks' High & Low Weather Summary

 TemperatureHumidityPressure
High94 °F (Sep 4, 3:53 PM)100% (Sep 3, 12:53 AM)30.42 "Hg (Sep 3, 12:53 AM)
Low40 °F (Sep 13, 6:53 AM)36% (Sep 7, 3:53 PM)29.57 "Hg (Sep 10, 4:53 AM)
Average68 °F77%30.03 "Hg
* Reported Sep 1 4:53 AM — Sep 16 4:53 AM, Jefferson City, Weather by CustomWeather, © 2014

Note: Actual official high and low records may vary slightly from our data, if they occured in-between our weather recording intervals... More about our weather records

Advertising

Jefferson City weather history for previous 24 hours

 ConditionsComfort  
Time TempWeatherWind HumidityBarometerVisibility
4:53 AM
Sep 16
59 °FMostly cloudy.No wind81%30.18 "Hg10 mi
3:53 AM60 °FOvercast.7 mph80%30.18 "Hg10 mi
2:53 AM61 °FOvercast.No wind83%30.17 "Hg10 mi
1:53 AM61 °FMostly cloudy.6 mph83%30.17 "Hg10 mi
12:53 AM61 °FOvercast.No wind90%30.16 "Hg10 mi
11:53 PM
Sep 15
61 °FFog.6 mph87%30.16 "Hg5 mi
11:01 PM64 °FOvercast.12 mph81%30.19 "Hg10 mi
9:53 PM65 °FMostly cloudy.No wind81%30.13 "Hg10 mi
8:53 PM66 °FOvercast.3 mph78%30.12 "Hg10 mi
8:04 PM66 °FMore clouds than sun.6 mph78%30.15 "Hg10 mi
7:53 PM67 °FMostly cloudy.5 mph76%30.10 "Hg10 mi
6:53 PM67 °FOvercast.7 mph81%30.09 "Hg10 mi
5:53 PM70 °FOvercast.12 mph79%30.06 "Hg10 mi
4:53 PM71 °FCloudy.7 mph81%30.04 "Hg10 mi
4:00 PM71 °FLight rain. Mostly cloudy.7 mph81%30.06 "Hg10 mi
2:53 PM75 °FMostly cloudy.12 mph76%30.02 "Hg10 mi
1:53 PM77 °FOvercast.8 mph66%30.01 "Hg10 mi
12:53 PM77 °FOvercast.9 mph66%30.01 "Hg10 mi
11:53 AM77 °FPartly sunny.13 mph64%30.01 "Hg10 mi
10:53 AM75 °FBroken clouds.8 mph66%30.04 "Hg10 mi
9:53 AM70 °FPassing clouds.10 mph71%30.05 "Hg10 mi
8:53 AM66 °FSunny.6 mph73%30.06 "Hg10 mi
7:53 AM61 °FPartly sunny.5 mph81%30.06 "Hg10 mi
6:53 AM60 °FOvercast.6 mph80%30.08 "Hg10 mi
Weather by CustomWeather, © 2014

See weather overviewHow to use our weather pages